Year,Month,Day,Hour,Minute,Value (Times are PST for temperature in C)
2012,03,17,10,31,4.70
2012,03,17,10,32,4.70
2012,03,17,10,33,4.70
2012,03,17,10,34,4.70
2012,03,17,10,35,4.80
2012,03,17,10,36,4.80
2012,03,17,10,37,4.80
2012,03,17,10,38,4.80
2012,03,17,10,39,4.70
2012,03,17,10,40,4.70
2012,03,17,10,41,4.80
2012,03,17,10,42,4.80
2012,03,17,10,43,4.80
2012,03,17,10,44,4.80
2012,03,17,10,45,4.80
2012,03,17,10,46,4.80
2012,03,17,10,47,4.80
2012,03,17,10,48,4.90
2012,03,17,10,49,4.90
2012,03,17,10,50,4.90
2012,03,17,10,51,4.90
2012,03,17,10,52,5.00
2012,03,17,10,53,5.10
2012,03,17,10,54,5.10
2012,03,17,10,55,5.10
2012,03,17,10,56,5.20
2012,03,17,10,57,5.20
2012,03,17,10,58,5.20
2012,03,17,10,59,5.30
2012,03,17,11,00,5.30
2012,03,17,11,01,5.20
2012,03,17,11,02,5.20
2012,03,17,11,03,5.20
2012,03,17,11,04,5.20
2012,03,17,11,05,5.30
2012,03,17,11,06,5.30
2012,03,17,11,07,5.40
2012,03,17,11,08,5.40
2012,03,17,11,09,5.30
2012,03,17,11,10,5.30
2012,03,17,11,11,5.20
2012,03,17,11,12,5.10
2012,03,17,11,13,5.10
2012,03,17,11,14,5.20
2012,03,17,11,15,5.20
2012,03,17,11,16,5.30
2012,03,17,11,17,5.30
2012,03,17,11,18,5.30
2012,03,17,11,19,5.40
2012,03,17,11,20,5.40
2012,03,17,11,21,5.40
2012,03,17,11,22,5.50
2012,03,17,11,23,5.60
2012,03,17,11,24,5.60
2012,03,17,11,25,5.60
2012,03,17,11,26,5.70
2012,03,17,11,27,5.70
2012,03,17,11,28,5.80
2012,03,17,11,29,5.80
2012,03,17,11,30,5.90
2012,03,17,11,31,5.90
2012,03,17,11,32,5.90
2012,03,17,11,33,6.00
2012,03,17,11,34,5.90
2012,03,17,11,35,5.90
2012,03,17,11,36,5.80
2012,03,17,11,37,5.80
2012,03,17,11,38,5.80
2012,03,17,11,39,5.70
2012,03,17,11,40,5.70
2012,03,17,11,41,5.70
2012,03,17,11,42,5.60
2012,03,17,11,43,5.60
2012,03,17,11,44,5.60
2012,03,17,11,45,5.60
2012,03,17,11,46,5.60
2012,03,17,11,47,5.60
2012,03,17,11,48,5.60
2012,03,17,11,49,5.60
2012,03,17,11,50,5.60
2012,03,17,11,51,5.60
2012,03,17,11,52,5.60
2012,03,17,11,53,5.70
2012,03,17,11,54,5.70
2012,03,17,11,55,5.70
2012,03,17,11,56,5.70
2012,03,17,11,57,5.70
2012,03,17,11,58,5.70
2012,03,17,11,59,5.70
2012,03,17,12,00,5.60
2012,03,17,12,01,5.60
2012,03,17,12,02,5.50
2012,03,17,12,03,5.50
2012,03,17,12,04,5.40
2012,03,17,12,05,5.50
2012,03,17,12,06,5.60
2012,03,17,12,07,5.70
2012,03,17,12,08,5.70
2012,03,17,12,09,5.70
2012,03,17,12,10,5.60
2012,03,17,12,11,5.60
2012,03,17,12,12,5.60
2012,03,17,12,13,5.60
2012,03,17,12,14,5.60
2012,03,17,12,15,5.60
2012,03,17,12,16,5.60
2012,03,17,12,17,5.50
2012,03,17,12,18,5.50
2012,03,17,12,19,5.50
2012,03,17,12,20,5.50
2012,03,17,12,21,5.40
2012,03,17,12,22,5.40
2012,03,17,12,23,5.30
2012,03,17,12,24,5.30
2012,03,17,12,25,5.30
2012,03,17,12,26,5.30
2012,03,17,12,27,5.30
2012,03,17,12,28,5.20
2012,03,17,12,29,5.20
2012,03,17,12,30,5.30
2012,03,17,12,31,5.40
2012,03,17,12,32,5.50
2012,03,17,12,33,5.50
2012,03,17,12,34,5.60
2012,03,17,12,35,5.60
2012,03,17,12,36,5.50
2012,03,17,12,37,5.50
2012,03,17,12,38,5.40
2012,03,17,12,39,5.30
2012,03,17,12,40,5.30
2012,03,17,12,41,5.30
2012,03,17,12,42,5.30
2012,03,17,12,43,5.40
2012,03,17,12,44,5.40
2012,03,17,12,45,5.50
2012,03,17,12,46,5.60
2012,03,17,12,47,5.60
2012,03,17,12,48,5.50
2012,03,17,12,49,5.50
2012,03,17,12,50,5.60
2012,03,17,12,51,5.70
2012,03,17,12,52,5.70
2012,03,17,12,53,5.70
2012,03,17,12,54,5.80
2012,03,17,12,55,5.80
2012,03,17,12,56,5.80
2012,03,17,12,57,5.80
2012,03,17,12,58,5.80
2012,03,17,12,59,5.80
2012,03,17,13,00,5.70
2012,03,17,13,01,5.70
2012,03,17,13,02,5.70
2012,03,17,13,03,5.70
2012,03,17,13,04,5.70
2012,03,17,13,05,5.70
2012,03,17,13,06,5.70
2012,03,17,13,07,5.70
2012,03,17,13,08,5.60
2012,03,17,13,09,5.60
2012,03,17,13,10,5.70
2012,03,17,13,11,5.70
2012,03,17,13,12,5.70
2012,03,17,13,13,5.80
2012,03,17,13,14,5.70
2012,03,17,13,15,5.70
2012,03,17,13,16,5.70
2012,03,17,13,17,5.70
2012,03,17,13,18,5.70
2012,03,17,13,19,5.70
2012,03,17,13,20,5.70
2012,03,17,13,21,5.70
2012,03,17,13,22,5.70
2012,03,17,13,23,5.80
2012,03,17,13,24,5.80
2012,03,17,13,25,5.90
2012,03,17,13,26,5.90
2012,03,17,13,27,5.90
2012,03,17,13,28,5.90
2012,03,17,13,29,6.00
2012,03,17,13,30,6.10
2012,03,17,13,31,6.20
2012,03,17,13,32,6.20
2012,03,17,13,33,6.20
2012,03,17,13,34,6.20
2012,03,17,13,35,6.20
2012,03,17,13,36,6.30
2012,03,17,13,37,6.30
2012,03,17,13,38,6.30
2012,03,17,13,39,6.20
2012,03,17,13,40,6.10
2012,03,17,13,41,6.00
2012,03,17,13,42,6.00
2012,03,17,13,43,6.10
2012,03,17,13,44,6.10
2012,03,17,13,45,6.10
2012,03,17,13,46,6.20
2012,03,17,13,47,6.30
2012,03,17,13,48,6.30
2012,03,17,13,49,6.40
2012,03,17,13,50,6.40
2012,03,17,13,51,6.40
2012,03,17,13,52,6.40
2012,03,17,13,53,6.40
2012,03,17,13,54,6.40
2012,03,17,13,55,6.50
2012,03,17,13,56,6.50
2012,03,17,13,57,6.60
2012,03,17,13,58,6.70
2012,03,17,13,59,6.70
2012,03,17,14,00,6.70
2012,03,17,14,01,6.70
2012,03,17,14,02,6.70
2012,03,17,14,03,6.70
2012,03,17,14,04,6.50
2012,03,17,14,05,6.40
2012,03,17,14,06,6.30
2012,03,17,14,07,6.30
2012,03,17,14,08,6.30
2012,03,17,14,09,6.30
2012,03,17,14,10,6.30
2012,03,17,14,11,6.30
2012,03,17,14,12,6.30
2012,03,17,14,13,6.20
2012,03,17,14,14,6.10
2012,03,17,14,15,6.00
2012,03,17,14,16,6.00
2012,03,17,14,17,5.90
2012,03,17,14,18,6.00
2012,03,17,14,19,6.00
2012,03,17,14,20,6.00
2012,03,17,14,21,5.90
2012,03,17,14,22,5.90
2012,03,17,14,23,5.90
2012,03,17,14,24,6.00
2012,03,17,14,25,6.00
2012,03,17,14,26,6.00
2012,03,17,14,27,6.10
2012,03,17,14,28,6.20
2012,03,17,14,29,6.30
2012,03,17,14,30,6.30
2012,03,17,14,31,6.30
2012,03,17,14,32,6.30
2012,03,17,14,33,6.30
2012,03,17,14,34,6.30
2012,03,17,14,35,6.30
2012,03,17,14,36,6.30
2012,03,17,14,37,6.20
2012,03,17,14,38,6.20
2012,03,17,14,39,6.20
2012,03,17,14,40,6.10
2012,03,17,14,41,6.10
2012,03,17,14,42,6.10
2012,03,17,14,43,6.00
2012,03,17,14,44,6.00
2012,03,17,14,45,6.00
2012,03,17,14,46,6.00
2012,03,17,14,47,6.00
2012,03,17,14,48,6.10
2012,03,17,14,49,6.10
2012,03,17,14,50,6.10
2012,03,17,14,51,6.10
2012,03,17,14,52,6.10
2012,03,17,14,53,6.00
2012,03,17,14,54,5.90
2012,03,17,14,55,5.90
2012,03,17,14,56,5.90
2012,03,17,14,57,5.90
2012,03,17,14,58,5.90
2012,03,17,14,59,5.90
2012,03,17,15,00,5.90
2012,03,17,15,01,5.90
2012,03,17,15,02,5.90
2012,03,17,15,03,5.90
2012,03,17,15,04,5.90
2012,03,17,15,05,5.90
2012,03,17,15,06,5.90
2012,03,17,15,07,5.90
2012,03,17,15,08,5.90
2012,03,17,15,09,5.90
2012,03,17,15,10,5.90
2012,03,17,15,11,5.90
2012,03,17,15,12,5.90
2012,03,17,15,13,5.90
2012,03,17,15,14,6.00
2012,03,17,15,15,6.00
2012,03,17,15,16,6.00
2012,03,17,15,17,5.90
2012,03,17,15,18,5.90
2012,03,17,15,19,5.90
2012,03,17,15,20,5.80
2012,03,17,15,21,5.80
2012,03,17,15,22,5.90
2012,03,17,15,23,5.90
2012,03,17,15,24,5.90
2012,03,17,15,25,5.90
2012,03,17,15,26,5.80
2012,03,17,15,27,5.80
2012,03,17,15,28,5.80
2012,03,17,15,29,5.70
2012,03,17,15,30,5.70
2012,03,17,15,31,5.70
2012,03,17,15,32,5.80
2012,03,17,15,33,5.80
2012,03,17,15,34,5.80
2012,03,17,15,35,5.80
2012,03,17,15,36,5.80
2012,03,17,15,37,5.80
2012,03,17,15,38,5.80
2012,03,17,15,39,5.80
2012,03,17,15,40,5.80
2012,03,17,15,41,5.90
2012,03,17,15,42,5.90
2012,03,17,15,43,6.00
2012,03,17,15,44,6.00
2012,03,17,15,45,6.10
2012,03,17,15,46,6.20
2012,03,17,15,47,6.20
2012,03,17,15,48,6.30
2012,03,17,15,49,6.20
2012,03,17,15,50,6.20
2012,03,17,15,51,6.20
2012,03,17,15,52,6.10
2012,03,17,15,53,6.10
2012,03,17,15,54,6.10
2012,03,17,15,55,6.00
2012,03,17,15,56,6.00
2012,03,17,15,57,6.10
2012,03,17,15,58,6.10
2012,03,17,15,59,6.10
2012,03,17,16,00,6.10
2012,03,17,16,01,6.10
2012,03,17,16,02,6.10
2012,03,17,16,03,6.10
2012,03,17,16,04,6.10
2012,03,17,16,05,6.00
2012,03,17,16,06,6.10
2012,03,17,16,07,6.10
2012,03,17,16,08,6.00
2012,03,17,16,09,6.00
2012,03,17,16,10,6.00
2012,03,17,16,11,6.00
2012,03,17,16,12,5.90
2012,03,17,16,13,5.90
2012,03,17,16,14,5.90
2012,03,17,16,15,5.80
2012,03,17,16,16,5.80
2012,03,17,16,17,5.80
2012,03,17,16,18,5.70
2012,03,17,16,19,5.70
2012,03,17,16,20,5.70
2012,03,17,16,21,5.70
2012,03,17,16,22,5.70
2012,03,17,16,23,5.70
2012,03,17,16,24,5.70
2012,03,17,16,25,5.70
2012,03,17,16,26,5.80
2012,03,17,16,27,5.80
2012,03,17,16,28,5.80
2012,03,17,16,29,5.80
2012,03,17,16,30,5.80
2012,03,17,16,31,5.80
2012,03,17,16,32,5.90
2012,03,17,16,33,5.90
2012,03,17,16,34,5.90
2012,03,17,16,35,5.90
2012,03,17,16,36,6.00
2012,03,17,16,37,6.00
2012,03,17,16,38,6.10
2012,03,17,16,39,6.20
2012,03,17,16,40,6.20
2012,03,17,16,41,6.30
2012,03,17,16,42,6.40
2012,03,17,16,43,6.50
2012,03,17,16,44,6.50
2012,03,17,16,45,6.50
2012,03,17,16,46,6.60
2012,03,17,16,47,6.60
2012,03,17,16,48,6.60
2012,03,17,16,49,6.60
2012,03,17,16,50,6.50
2012,03,17,16,51,6.40
2012,03,17,16,52,6.30
2012,03,17,16,53,6.20
2012,03,17,16,54,6.20
2012,03,17,16,55,6.20
2012,03,17,16,56,6.30
2012,03,17,16,57,6.40
2012,03,17,16,58,6.40
2012,03,17,16,59,6.40
2012,03,17,17,00,6.50
2012,03,17,17,01,6.60
2012,03,17,17,02,6.70
2012,03,17,17,03,6.70
2012,03,17,17,04,6.80
2012,03,17,17,05,6.80
2012,03,17,17,06,6.90
2012,03,17,17,07,6.90
2012,03,17,17,08,7.00
2012,03,17,17,09,7.20
2012,03,17,17,10,7.20
2012,03,17,17,11,7.20
2012,03,17,17,12,7.10
2012,03,17,17,13,6.90
2012,03,17,17,14,6.80
2012,03,17,17,15,6.80
2012,03,17,17,16,6.70
2012,03,17,17,17,6.60
2012,03,17,17,18,6.60
2012,03,17,17,19,6.60
2012,03,17,17,20,6.70
2012,03,17,17,21,6.70
2012,03,17,17,22,6.70
2012,03,17,17,23,6.70
2012,03,17,17,24,6.70
2012,03,17,17,25,6.70
2012,03,17,17,26,6.70
2012,03,17,17,27,6.80
2012,03,17,17,28,6.80
2012,03,17,17,29,6.80
2012,03,17,17,30,6.80
2012,03,17,17,31,6.80
2012,03,17,17,32,6.80
2012,03,17,17,33,6.80
2012,03,17,17,34,6.90
2012,03,17,17,35,6.90
2012,03,17,17,36,7.00
2012,03,17,17,37,7.00
2012,03,17,17,38,6.90
2012,03,17,17,39,6.90
2012,03,17,17,40,6.90
2012,03,17,17,41,6.80
2012,03,17,17,42,6.80
2012,03,17,17,43,6.70
2012,03,17,17,44,6.70
2012,03,17,17,45,6.70
2012,03,17,17,46,6.70
2012,03,17,17,47,6.70
2012,03,17,17,48,6.60
2012,03,17,17,49,6.60
2012,03,17,17,50,6.60
2012,03,17,17,51,6.50
2012,03,17,17,52,6.40
2012,03,17,17,53,6.40
2012,03,17,17,54,6.30
2012,03,17,17,55,6.30
2012,03,17,17,56,6.20
2012,03,17,17,57,6.20
2012,03,17,17,58,6.20
2012,03,17,17,59,6.10
2012,03,17,18,00,6.10
2012,03,17,18,01,6.10
2012,03,17,18,02,6.00
2012,03,17,18,03,6.00
2012,03,17,18,04,6.00
2012,03,17,18,05,5.90
2012,03,17,18,06,5.90
2012,03,17,18,07,5.90
2012,03,17,18,08,5.90
2012,03,17,18,09,6.00
2012,03,17,18,10,6.00
2012,03,17,18,11,6.00
2012,03,17,18,12,6.00
2012,03,17,18,13,6.00
2012,03,17,18,14,6.00
2012,03,17,18,15,6.00
2012,03,17,18,16,6.00
2012,03,17,18,17,6.00
2012,03,17,18,18,6.00
2012,03,17,18,19,6.00
2012,03,17,18,20,6.10
2012,03,17,18,21,6.10
2012,03,17,18,22,6.20
2012,03,17,18,23,6.20
2012,03,17,18,24,6.20
2012,03,17,18,25,6.20
2012,03,17,18,26,6.20
2012,03,17,18,27,6.20
2012,03,17,18,28,6.20
2012,03,17,18,29,6.20
2012,03,17,18,30,6.20
2012,03,17,18,31,6.20
2012,03,17,18,32,6.20
2012,03,17,18,33,6.20
2012,03,17,18,34,6.10
2012,03,17,18,35,6.10
2012,03,17,18,36,6.10
2012,03,17,18,37,6.00
2012,03,17,18,38,6.00
2012,03,17,18,39,6.00
2012,03,17,18,40,5.90
2012,03,17,18,41,5.90
2012,03,17,18,42,5.90
2012,03,17,18,43,5.90
2012,03,17,18,44,5.90
2012,03,17,18,45,5.90
2012,03,17,18,46,5.80
2012,03,17,18,47,5.80
2012,03,17,18,48,5.80
2012,03,17,18,49,5.80
2012,03,17,18,50,5.80
2012,03,17,18,51,5.70
2012,03,17,18,52,5.70
2012,03,17,18,53,5.70
2012,03,17,18,54,5.60
2012,03,17,18,55,5.50
2012,03,17,18,56,5.50
2012,03,17,18,57,5.40
2012,03,17,18,58,5.30
2012,03,17,18,59,5.30
2012,03,17,19,00,5.20
2012,03,17,19,01,5.20
2012,03,17,19,02,5.10
2012,03,17,19,03,5.10
2012,03,17,19,04,5.10
2012,03,17,19,05,5.00
2012,03,17,19,06,4.90
2012,03,17,19,07,4.90
2012,03,17,19,08,4.90
2012,03,17,19,09,4.80
2012,03,17,19,10,4.70
2012,03,17,19,11,4.70
2012,03,17,19,12,4.70
2012,03,17,19,13,4.60
2012,03,17,19,14,4.60
2012,03,17,19,15,4.50
2012,03,17,19,16,4.50
2012,03,17,19,17,4.40
2012,03,17,19,18,4.40
2012,03,17,19,19,4.30
2012,03,17,19,20,4.30
2012,03,17,19,21,4.30
2012,03,17,19,22,4.20
2012,03,17,19,23,4.20
2012,03,17,19,24,4.20
2012,03,17,19,25,4.20
2012,03,17,19,26,4.10
2012,03,17,19,27,4.10
2012,03,17,19,28,4.10
2012,03,17,19,29,4.10
2012,03,17,19,30,4.00
2012,03,17,19,31,4.00
2012,03,17,19,32,4.00
2012,03,17,19,33,3.90
2012,03,17,19,34,3.90
2012,03,17,19,35,3.80
2012,03,17,19,36,3.80
2012,03,17,19,37,3.70
2012,03,17,19,38,3.70
2012,03,17,19,39,3.70
2012,03,17,19,40,3.70
2012,03,17,19,41,3.70
2012,03,17,19,42,3.70
2012,03,17,19,43,3.70
2012,03,17,19,44,3.70
2012,03,17,19,45,3.70
2012,03,17,19,46,3.70
2012,03,17,19,47,3.70
